Time,TemperatureF,DewpointF,PressureIn,WindDirection,WindDirectionDegrees,WindSpeedMPH,WindSpeedGustMPH,Humidity,HourlyPrecipIn,Conditions,Clouds,dailyrainin,SoftwareType,DateUTC
2013-06-06 00:04:00,63.9,62.4,30.10,ENE,71,0.0,2.0,95,0.05,,,0.00,WeatherCatV1.15B25,2013-06-06 04:04:00,
2013-06-06 00:09:00,63.9,62.4,30.09,ENE,57,0.0,1.0,95,0.24,,,0.02,WeatherCatV1.15B25,2013-06-06 04:09:00,
2013-06-06 00:14:00,63.8,62.3,30.09,ENE,57,1.0,1.0,95,0.14,,,0.03,WeatherCatV1.15B25,2013-06-06 04:14:00,
2013-06-06 00:19:00,63.8,62.3,30.08,NE,51,4.0,7.0,95,0.09,,,0.04,WeatherCatV1.15B25,2013-06-06 04:19:00,
2013-06-06 00:24:00,63.8,62.3,30.08,NE,36,0.0,1.0,95,0.09,,,0.04,WeatherCatV1.15B25,2013-06-06 04:24:00,
2013-06-06 00:29:00,63.7,62.2,30.08,WNW,283,3.0,3.0,95,0.05,,,0.04,WeatherCatV1.15B25,2013-06-06 04:29:00,
2013-06-06 00:34:00,63.8,62.3,30.08,SW,228,2.0,5.0,95,0.04,,,0.04,WeatherCatV1.15B25,2013-06-06 04:34:00,
2013-06-06 00:39:00,63.9,62.4,30.07,WNW,291,1.0,3.0,95,0.00,,,0.04,WeatherCatV1.15B25,2013-06-06 04:39:00,
2013-06-06 00:44:00,64.0,62.5,30.07,NE,38,0.0,2.0,95,0.00,,,0.04,WeatherCatV1.15B25,2013-06-06 04:44:00,
2013-06-06 00:49:00,64.0,62.5,30.07,NW,315,1.0,2.0,95,0.00,,,0.04,WeatherCatV1.15B25,2013-06-06 04:49:00,
2013-06-06 00:54:00,64.0,62.5,30.06,NW,305,0.0,1.0,95,0.00,,,0.04,WeatherCatV1.15B25,2013-06-06 04:54:00,
2013-06-06 00:59:00,63.9,62.4,30.06,NNE,29,3.0,3.0,95,0.00,,,0.04,WeatherCatV1.15B25,2013-06-06 04:59:00,
2013-06-06 01:04:00,63.8,62.3,30.06,NNE,28,2.0,2.0,95,0.00,,,0.04,WeatherCatV1.15B25,2013-06-06 05:04:00,
2013-06-06 01:09:00,63.8,62.3,30.05,NNW,327,1.0,4.0,95,0.00,,,0.04,WeatherCatV1.15B25,2013-06-06 05:09:00,
2013-06-06 01:14:00,63.8,62.3,30.05,North,355,0.0,2.0,95,0.00,,,0.04,WeatherCatV1.15B25,2013-06-06 05:14:00,
2013-06-06 01:19:00,63.7,62.2,30.05,WSW,256,0.0,4.0,95,0.00,,,0.04,WeatherCatV1.15B25,2013-06-06 05:19:00,
2013-06-06 01:24:00,63.7,62.2,30.05,WSW,241,0.0,3.0,95,0.00,,,0.04,WeatherCatV1.15B25,2013-06-06 05:24:00,
2013-06-06 01:29:00,63.7,62.2,30.05,WSW,257,1.0,1.0,95,0.00,,,0.04,WeatherCatV1.15B25,2013-06-06 05:29:00,
2013-06-06 01:34:00,63.7,62.2,30.04,West,277,0.0,1.0,95,0.00,,,0.04,WeatherCatV1.15B25,2013-06-06 05:34:00,
2013-06-06 01:39:00,63.7,62.5,30.04,WNW,294,0.0,2.0,96,0.00,,,0.04,WeatherCatV1.15B25,2013-06-06 05:39:00,
2013-06-06 01:44:00,63.7,62.2,30.04,WNW,288,1.0,3.0,95,0.00,,,0.04,WeatherCatV1.15B25,2013-06-06 05:44:00,
2013-06-06 01:49:00,63.8,62.6,30.04,WNW,288,0.0,0.0,96,0.00,,,0.04,WeatherCatV1.15B25,2013-06-06 05:49:00,
2013-06-06 01:54:00,63.8,62.6,30.04,WNW,288,0.0,0.0,96,0.00,,,0.04,WeatherCatV1.15B25,2013-06-06 05:54:00,
2013-06-06 01:59:00,63.8,62.6,30.04,WNW,288,0.0,0.0,96,0.00,,,0.04,WeatherCatV1.15B25,2013-06-06 05:59:00,
2013-06-06 02:04:00,63.7,62.5,30.04,WNW,288,0.0,0.0,96,0.00,,,0.04,WeatherCatV1.15B25,2013-06-06 06:04:00,
2013-06-06 02:09:00,63.7,62.5,30.04,NW,314,0.0,1.0,96,0.00,,,0.04,WeatherCatV1.15B25,2013-06-06 06:09:00,
2013-06-06 02:14:00,63.7,62.5,30.03,NW,314,0.0,0.0,96,0.00,,,0.04,WeatherCatV1.15B25,2013-06-06 06:14:00,
2013-06-06 02:19:00,63.6,62.4,30.03,NW,314,0.0,0.0,96,0.00,,,0.04,WeatherCatV1.15B25,2013-06-06 06:19:00,
2013-06-06 02:24:00,63.6,62.4,30.03,NW,314,0.0,0.0,96,0.00,,,0.04,WeatherCatV1.15B25,2013-06-06 06:24:00,
2013-06-06 02:29:00,63.6,62.4,30.03,NW,314,0.0,0.0,96,0.00,,,0.04,WeatherCatV1.15B25,2013-06-06 06:29:00,
2013-06-06 02:34:00,63.7,62.8,30.03,NW,314,0.0,0.0,97,0.00,,,0.04,WeatherCatV1.15B25,2013-06-06 06:34:00,
2013-06-06 02:39:00,63.7,62.8,30.03,NW,314,0.0,0.0,97,0.00,,,0.04,WeatherCatV1.15B25,2013-06-06 06:39:00,
2013-06-06 02:44:00,63.8,62.9,30.03,SW,228,0.0,2.0,97,0.00,,,0.04,WeatherCatV1.15B25,2013-06-06 06:44:00,
2013-06-06 02:49:00,63.8,62.9,30.03,SW,228,0.0,0.0,97,0.00,,,0.04,WeatherCatV1.15B25,2013-06-06 06:49:00,
2013-06-06 02:54:00,63.8,62.9,30.03,WSW,239,0.0,3.0,97,0.00,,,0.04,WeatherCatV1.15B25,2013-06-06 06:54:00,
2013-06-06 02:59:00,63.9,63.0,30.03,SW,232,0.0,2.0,97,0.00,,,0.04,WeatherCatV1.15B25,2013-06-06 06:59:00,
2013-06-06 03:04:00,63.9,63.0,30.03,SW,232,0.0,2.0,97,0.00,,,0.04,WeatherCatV1.15B25,2013-06-06 07:04:00,
2013-06-06 03:09:00,63.9,63.0,30.03,SW,232,0.0,1.0,97,0.00,,,0.04,WeatherCatV1.15B25,2013-06-06 07:09:00,
2013-06-06 03:14:00,63.9,63.0,30.02,WSW,239,3.0,4.0,97,0.00,,,0.04,WeatherCatV1.15B25,2013-06-06 07:14:00,
2013-06-06 03:19:00,63.9,63.0,30.03,WSW,239,1.0,1.0,97,0.00,,,0.04,WeatherCatV1.15B25,2013-06-06 07:19:00,
2013-06-06 03:24:00,63.9,63.0,30.02,WSW,240,0.0,0.0,97,0.00,,,0.04,WeatherCatV1.15B25,2013-06-06 07:24:00,
2013-06-06 03:29:00,63.9,63.0,30.02,WSW,255,0.0,0.0,97,0.00,,,0.04,WeatherCatV1.15B25,2013-06-06 07:29:00,
2013-06-06 03:34:00,63.9,63.0,30.03,WSW,258,1.0,3.0,97,0.00,,,0.05,WeatherCatV1.15B25,2013-06-06 07:34:00,
2013-06-06 03:39:00,63.9,63.0,30.02,WSW,258,0.0,0.0,97,0.00,,,0.05,WeatherCatV1.15B25,2013-06-06 07:39:00,
2013-06-06 03:44:00,64.0,63.1,30.02,WNW,293,0.0,0.0,97,0.00,,,0.05,WeatherCatV1.15B25,2013-06-06 07:44:00,
2013-06-06 03:49:00,64.0,63.1,30.02,WNW,288,1.0,3.0,97,0.00,,,0.05,WeatherCatV1.15B25,2013-06-06 07:49:00,
2013-06-06 03:54:00,64.0,63.1,30.02,NW,320,0.0,1.0,97,0.00,,,0.05,WeatherCatV1.15B25,2013-06-06 07:54:00,
2013-06-06 03:59:00,64.0,63.1,30.01,WNW,288,0.0,4.0,97,0.00,,,0.05,WeatherCatV1.15B25,2013-06-06 07:59:00,
2013-06-06 04:04:00,64.0,63.1,30.02,NW,314,2.0,2.0,97,0.00,,,0.05,WeatherCatV1.15B25,2013-06-06 08:04:00,
2013-06-06 04:09:00,64.0,63.1,30.01,NW,313,0.0,1.0,97,0.00,,,0.05,WeatherCatV1.15B25,2013-06-06 08:09:00,
2013-06-06 04:14:00,64.0,63.1,30.01,NW,313,1.0,1.0,97,0.00,,,0.05,WeatherCatV1.15B25,2013-06-06 08:14:00,
2013-06-06 04:19:00,64.0,63.1,30.01,NW,307,0.0,0.0,97,0.00,,,0.05,WeatherCatV1.15B25,2013-06-06 08:19:00,
2013-06-06 04:24:00,63.9,63.0,30.01,NW,306,0.0,2.0,97,0.00,,,0.05,WeatherCatV1.15B25,2013-06-06 08:24:00,
2013-06-06 04:29:00,63.9,63.0,30.01,NW,306,0.0,1.0,97,0.00,,,0.05,WeatherCatV1.15B25,2013-06-06 08:29:00,
2013-06-06 04:34:00,63.9,63.0,30.01,NW,306,1.0,1.0,97,0.00,,,0.05,WeatherCatV1.15B25,2013-06-06 08:34:00,
2013-06-06 04:39:00,64.0,63.1,30.01,NW,306,0.0,0.0,97,0.00,,,0.05,WeatherCatV1.15B25,2013-06-06 08:39:00,
2013-06-06 04:44:00,63.9,63.0,30.01,NW,306,0.0,1.0,97,0.00,,,0.05,WeatherCatV1.15B25,2013-06-06 08:44:00,
2013-06-06 04:49:00,63.9,63.0,30.01,NW,306,0.0,0.0,97,0.00,,,0.05,WeatherCatV1.15B25,2013-06-06 08:49:00,
2013-06-06 04:54:00,63.9,63.0,30.00,NW,306,0.0,1.0,97,0.00,,,0.05,WeatherCatV1.15B25,2013-06-06 08:54:00,
2013-06-06 04:59:00,63.9,63.0,30.00,WNW,302,0.0,0.0,97,0.00,,,0.05,WeatherCatV1.15B25,2013-06-06 08:59:00,
2013-06-06 05:04:00,63.8,62.9,30.00,WNW,302,0.0,0.0,97,0.00,,,0.05,WeatherCatV1.15B25,2013-06-06 09:04:00,
2013-06-06 05:09:00,63.8,62.9,30.00,WNW,302,0.0,0.0,97,0.00,,,0.05,WeatherCatV1.15B25,2013-06-06 09:09:00,
2013-06-06 05:14:00,63.8,62.9,30.00,WNW,302,0.0,0.0,97,0.00,,,0.05,WeatherCatV1.15B25,2013-06-06 09:14:00,
2013-06-06 05:19:00,63.8,62.9,30.00,WNW,302,0.0,0.0,97,0.00,,,0.05,WeatherCatV1.15B25,2013-06-06 09:19:00,
2013-06-06 05:24:00,63.7,62.8,30.00,WNW,302,0.0,0.0,97,0.00,,,0.05,WeatherCatV1.15B25,2013-06-06 09:24:00,
2013-06-06 05:29:00,63.6,62.7,30.00,WNW,302,0.0,0.0,97,0.00,,,0.05,WeatherCatV1.15B25,2013-06-06 09:29:00,
2013-06-06 05:34:00,63.6,62.7,30.00,WNW,301,0.0,1.0,97,0.00,,,0.05,WeatherCatV1.15B25,2013-06-06 09:34:00,
2013-06-06 05:39:00,63.5,62.6,30.00,WNW,301,0.0,0.0,97,0.00,,,0.05,WeatherCatV1.15B25,2013-06-06 09:39:00,
2013-06-06 05:44:00,63.5,62.6,30.00,WNW,302,0.0,0.0,97,0.00,,,0.05,WeatherCatV1.15B25,2013-06-06 09:44:00,
2013-06-06 05:49:00,63.4,62.5,30.00,WNW,302,0.0,0.0,97,0.00,,,0.05,WeatherCatV1.15B25,2013-06-06 09:49:00,
2013-06-06 05:54:00,63.3,62.4,30.00,WNW,302,0.0,0.0,97,0.00,,,0.05,WeatherCatV1.15B25,2013-06-06 09:54:00,
2013-06-06 05:59:00,63.3,62.4,30.00,WNW,302,0.0,0.0,97,0.00,,,0.05,WeatherCatV1.15B25,2013-06-06 09:59:00,
2013-06-06 06:04:00,63.3,62.4,30.00,WNW,302,0.0,0.0,97,0.00,,,0.05,WeatherCatV1.15B25,2013-06-06 10:04:00,
2013-06-06 06:09:00,63.3,62.4,30.00,WNW,302,0.0,0.0,97,0.00,,,0.05,WeatherCatV1.15B25,2013-06-06 10:09:00,
2013-06-06 06:14:00,63.2,62.3,30.00,WNW,302,0.0,0.0,97,0.00,,,0.05,WeatherCatV1.15B25,2013-06-06 10:14:00,
2013-06-06 06:19:00,63.2,62.3,30.00,WNW,301,0.0,0.0,97,0.00,,,0.05,WeatherCatV1.15B25,2013-06-06 10:19:00,
2013-06-06 06:24:00,63.2,62.3,30.00,WNW,302,0.0,0.0,97,0.00,,,0.05,WeatherCatV1.15B25,2013-06-06 10:24:00,
2013-06-06 06:29:00,63.2,62.3,30.00,WNW,302,0.0,0.0,97,0.00,,,0.05,WeatherCatV1.15B25,2013-06-06 10:29:00,
2013-06-06 06:34:00,63.2,62.3,30.00,WNW,302,0.0,0.0,97,0.00,,,0.05,WeatherCatV1.15B25,2013-06-06 10:34:00,
2013-06-06 06:39:00,63.1,62.2,30.00,WNW,302,0.0,0.0,97,0.00,,,0.05,WeatherCatV1.15B25,2013-06-06 10:39:00,
2013-06-06 06:44:00,63.2,62.3,30.00,WNW,302,0.0,0.0,97,0.00,,,0.05,WeatherCatV1.15B25,2013-06-06 10:44:00,
2013-06-06 06:49:00,63.2,62.3,30.00,WNW,302,0.0,0.0,97,0.00,,,0.05,WeatherCatV1.15B25,2013-06-06 10:49:00,
2013-06-06 06:54:00,63.2,62.3,30.00,WNW,302,0.0,0.0,97,0.00,,,0.05,WeatherCatV1.15B25,2013-06-06 10:54:00,
2013-06-06 06:59:00,63.2,62.3,30.00,WNW,302,0.0,0.0,97,0.00,,,0.05,WeatherCatV1.15B25,2013-06-06 10:59:00,
2013-06-06 07:04:00,63.2,62.3,30.00,West,259,0.0,1.0,97,0.00,,,0.05,WeatherCatV1.15B25,2013-06-06 11:04:00,
2013-06-06 07:09:00,63.3,62.4,30.00,West,259,0.0,1.0,97,0.00,,,0.05,WeatherCatV1.15B25,2013-06-06 11:09:00,
2013-06-06 07:14:00,63.4,62.8,30.00,West,265,0.0,2.0,98,0.00,,,0.05,WeatherCatV1.15B25,2013-06-06 11:14:00,
2013-06-06 07:19:00,63.5,62.9,30.00,West,265,0.0,1.0,98,0.00,,,0.05,WeatherCatV1.15B25,2013-06-06 11:19:00,
2013-06-06 07:24:00,63.6,63.0,30.00,ENE,61,0.0,1.0,98,0.00,,,0.05,WeatherCatV1.15B25,2013-06-06 11:24:00,
2013-06-06 07:29:00,63.7,63.1,30.00,NNW,343,0.0,0.0,98,0.00,,,0.05,WeatherCatV1.15B25,2013-06-06 11:29:00,
2013-06-06 07:34:00,63.8,63.2,30.00,NNW,343,0.0,0.0,98,0.00,,,0.05,WeatherCatV1.15B25,2013-06-06 11:34:00,
2013-06-06 07:39:00,64.0,63.4,30.00,NNW,343,0.0,0.0,98,0.00,,,0.05,WeatherCatV1.15B25,2013-06-06 11:39:00,
2013-06-06 07:44:00,64.1,63.5,30.00,NNW,343,0.0,0.0,98,0.00,,,0.05,WeatherCatV1.15B25,2013-06-06 11:44:00,
2013-06-06 07:49:00,64.1,63.5,30.00,NNW,343,0.0,0.0,98,0.00,,,0.05,WeatherCatV1.15B25,2013-06-06 11:49:00,
2013-06-06 07:54:00,64.2,63.3,30.00,NNW,343,0.0,0.0,97,0.00,,,0.05,WeatherCatV1.15B25,2013-06-06 11:54:00,
2013-06-06 07:59:00,64.3,63.4,30.00,NNW,343,0.0,1.0,97,0.00,,,0.05,WeatherCatV1.15B25,2013-06-06 11:59:00,
2013-06-06 08:04:00,64.3,63.4,30.00,West,268,0.0,2.0,97,0.00,,,0.05,WeatherCatV1.15B25,2013-06-06 12:04:00,
2013-06-06 08:09:00,64.4,63.5,30.00,West,268,0.0,1.0,97,0.00,,,0.05,WeatherCatV1.15B25,2013-06-06 12:09:00,
2013-06-06 08:14:00,64.4,63.5,30.00,West,268,0.0,0.0,97,0.00,,,0.05,WeatherCatV1.15B25,2013-06-06 12:14:00,
2013-06-06 08:19:00,64.6,64.0,30.00,West,268,0.0,0.0,98,0.00,,,0.05,WeatherCatV1.15B25,2013-06-06 12:19:00,
2013-06-06 08:24:00,64.7,63.8,30.00,West,267,1.0,2.0,97,0.00,,,0.05,WeatherCatV1.15B25,2013-06-06 12:24:00,
2013-06-06 08:29:00,64.7,63.8,30.00,WSW,238,0.0,4.0,97,0.00,,,0.05,WeatherCatV1.15B25,2013-06-06 12:29:00,
2013-06-06 08:34:00,64.7,63.8,30.00,WSW,238,0.0,2.0,97,0.00,,,0.05,WeatherCatV1.15B25,2013-06-06 12:34:00,
2013-06-06 08:39:00,64.9,64.0,29.99,WSW,248,0.0,2.0,97,0.00,,,0.05,WeatherCatV1.15B25,2013-06-06 12:39:00,
2013-06-06 08:44:00,65.1,64.2,29.99,WSW,252,2.0,4.0,97,0.00,,,0.05,WeatherCatV1.15B25,2013-06-06 12:44:00,
2013-06-06 08:49:00,65.2,64.3,30.00,West,263,0.0,1.0,97,0.00,,,0.05,WeatherCatV1.15B25,2013-06-06 12:49:00,
2013-06-06 08:54:00,65.3,64.4,30.00,WSW,258,0.0,0.0,97,0.00,,,0.05,WeatherCatV1.15B25,2013-06-06 12:54:00,
2013-06-06 08:59:00,65.4,64.2,30.00,WSW,252,0.0,3.0,96,0.00,,,0.05,WeatherCatV1.15B25,2013-06-06 12:59:00,
2013-06-06 09:04:00,65.4,64.2,30.00,West,260,1.0,4.0,96,0.00,,,0.05,WeatherCatV1.15B25,2013-06-06 13:04:00,
2013-06-06 09:09:00,65.5,64.3,30.00,WSW,239,0.0,2.0,96,0.00,,,0.05,WeatherCatV1.15B25,2013-06-06 13:09:00,
2013-06-06 09:14:00,65.5,64.3,30.01,WSW,257,0.0,0.0,96,0.00,,,0.05,WeatherCatV1.15B25,2013-06-06 13:14:00,
2013-06-06 09:19:00,65.6,64.4,30.01,WSW,257,0.0,0.0,96,0.00,,,0.05,WeatherCatV1.15B25,2013-06-06 13:19:00,
2013-06-06 09:24:00,65.7,64.5,30.01,WSW,257,0.0,1.0,96,0.00,,,0.05,WeatherCatV1.15B25,2013-06-06 13:24:00,
2013-06-06 09:29:00,65.7,64.5,30.00,WSW,257,0.0,0.0,96,0.00,,,0.05,WeatherCatV1.15B25,2013-06-06 13:29:00,
2013-06-06 09:34:00,65.8,64.6,30.00,WSW,256,0.0,0.0,96,0.00,,,0.05,WeatherCatV1.15B25,2013-06-06 13:34:00,
2013-06-06 09:39:00,65.9,65.0,30.00,WSW,257,2.0,2.0,97,0.00,,,0.05,WeatherCatV1.15B25,2013-06-06 13:39:00,
2013-06-06 09:44:00,66.0,64.8,30.00,WSW,257,0.0,0.0,96,0.00,,,0.05,WeatherCatV1.15B25,2013-06-06 13:44:00,
2013-06-06 09:49:00,66.0,64.8,30.00,WSW,255,1.0,1.0,96,0.00,,,0.05,WeatherCatV1.15B25,2013-06-06 13:49:00,
2013-06-06 09:54:00,66.1,64.9,30.00,WSW,250,0.0,1.0,96,0.00,,,0.05,WeatherCatV1.15B25,2013-06-06 13:54:00,
2013-06-06 09:59:00,66.3,64.8,30.00,WSW,254,4.0,5.0,95,0.00,,,0.05,WeatherCatV1.15B25,2013-06-06 13:59:00,
2013-06-06 10:04:00,66.4,64.6,30.00,WSW,240,0.0,0.0,94,0.00,,,0.05,WeatherCatV1.15B25,2013-06-06 14:04:00,
2013-06-06 10:09:00,66.6,64.8,30.00,West,273,0.0,0.0,94,0.00,,,0.05,WeatherCatV1.15B25,2013-06-06 14:09:00,
2013-06-06 10:14:00,67.0,65.5,30.00,WSW,240,6.0,6.0,95,0.00,,,0.05,WeatherCatV1.15B25,2013-06-06 14:14:00,
2013-06-06 10:19:00,67.2,65.4,30.00,NW,324,0.0,1.0,94,0.00,,,0.05,WeatherCatV1.15B25,2013-06-06 14:19:00,
2013-06-06 10:24:00,67.6,65.8,30.00,NNE,13,0.0,0.0,94,0.00,,,0.05,WeatherCatV1.15B25,2013-06-06 14:24:00,
2013-06-06 10:29:00,67.7,65.3,29.99,WSW,243,1.0,4.0,92,0.00,,,0.05,WeatherCatV1.15B25,2013-06-06 14:29:00,
2013-06-06 10:34:00,67.8,65.4,29.99,WSW,258,2.0,6.0,92,0.00,,,0.05,WeatherCatV1.15B25,2013-06-06 14:34:00,
2013-06-06 10:39:00,67.9,64.9,29.99,West,280,0.0,4.0,90,0.00,,,0.05,WeatherCatV1.15B25,2013-06-06 14:39:00,
2013-06-06 10:44:00,68.3,65.9,29.99,WSW,240,4.0,4.0,92,0.00,,,0.05,WeatherCatV1.15B25,2013-06-06 14:44:00,
2013-06-06 10:49:00,68.6,65.2,30.00,West,267,3.0,4.0,89,0.00,,,0.05,WeatherCatV1.15B25,2013-06-06 14:49:00,
2013-06-06 10:54:00,68.7,65.3,30.00,WSW,254,3.0,6.0,89,0.00,,,0.05,WeatherCatV1.15B25,2013-06-06 14:54:00,
2013-06-06 10:59:00,68.9,65.5,30.00,WSW,248,5.0,6.0,89,0.00,,,0.05,WeatherCatV1.15B25,2013-06-06 14:59:00,
2013-06-06 11:04:00,69.2,65.8,30.00,SW,234,1.0,3.0,89,0.00,,,0.05,WeatherCatV1.15B25,2013-06-06 15:04:00,
2013-06-06 11:09:00,69.4,65.7,30.00,West,270,1.0,7.0,88,0.00,,,0.05,WeatherCatV1.15B25,2013-06-06 15:09:00,
2013-06-06 11:14:00,69.7,65.0,30.00,WSW,253,4.0,5.0,85,0.00,,,0.05,WeatherCatV1.15B25,2013-06-06 15:14:00,
2013-06-06 11:19:00,70.1,65.7,30.00,NNW,343,1.0,1.0,86,0.00,,,0.05,WeatherCatV1.15B25,2013-06-06 15:19:00,
2013-06-06 11:24:00,70.5,64.7,30.00,West,265,2.0,7.0,82,0.00,,,0.05,WeatherCatV1.15B25,2013-06-06 15:24:00,
2013-06-06 11:34:00,70.9,65.8,30.00,NNE,22,0.0,1.0,84,0.00,,,0.05,WeatherCatV1.15B25,2013-06-06 15:34:00,
2013-06-06 11:39:00,71.0,65.2,30.00,WNW,300,0.0,3.0,82,0.00,,,0.05,WeatherCatV1.15B25,2013-06-06 15:39:00,
2013-06-06 11:44:00,71.2,65.8,30.01,WSW,257,1.0,3.0,83,0.00,,,0.05,WeatherCatV1.15B25,2013-06-06 15:44:00,
2013-06-06 11:49:00,71.3,65.9,30.00,South,189,1.0,1.0,83,0.00,,,0.05,WeatherCatV1.15B25,2013-06-06 15:49:00,
2013-06-06 11:54:00,71.3,65.9,30.00,North,5,0.0,1.0,83,0.00,,,0.05,WeatherCatV1.15B25,2013-06-06 15:54:00,
2013-06-06 11:59:00,71.6,65.4,30.00,NE,49,0.0,2.0,81,0.00,,,0.05,WeatherCatV1.15B25,2013-06-06 15:59:00,
2013-06-06 12:04:00,71.7,65.5,30.00,SSW,201,0.0,4.0,81,0.00,,,0.05,WeatherCatV1.15B25,2013-06-06 16:04:00,
2013-06-06 12:09:00,71.8,66.0,29.99,West,268,1.0,1.0,82,0.00,,,0.05,WeatherCatV1.15B25,2013-06-06 16:09:00,
2013-06-06 12:14:00,72.0,66.5,29.99,ENE,57,0.0,1.0,83,0.00,,,0.05,WeatherCatV1.15B25,2013-06-06 16:14:00,
2013-06-06 12:19:00,72.1,65.6,30.00,WSW,242,3.0,5.0,80,0.00,,,0.05,WeatherCatV1.15B25,2013-06-06 16:19:00,
2013-06-06 12:24:00,72.0,65.8,30.00,WSW,246,1.0,1.0,81,0.00,,,0.05,WeatherCatV1.15B25,2013-06-06 16:24:00,
2013-06-06 12:29:00,71.7,65.5,30.00,SW,226,5.0,5.0,81,0.00,,,0.05,WeatherCatV1.15B25,2013-06-06 16:29:00,
2013-06-06 12:34:00,71.7,65.5,29.99,West,268,0.0,2.0,81,0.00,,,0.05,WeatherCatV1.15B25,2013-06-06 16:34:00,
2013-06-06 12:39:00,71.7,66.2,30.00,WSW,258,0.0,0.0,83,0.00,,,0.05,WeatherCatV1.15B25,2013-06-06 16:39:00,
2013-06-06 12:44:00,71.9,66.8,29.99,NW,315,0.0,1.0,84,0.00,,,0.05,WeatherCatV1.15B25,2013-06-06 16:44:00,
2013-06-06 12:49:00,72.1,65.9,29.99,West,271,3.0,4.0,81,0.00,,,0.05,WeatherCatV1.15B25,2013-06-06 16:49:00,
2013-06-06 12:54:00,72.2,66.4,29.99,WNW,292,0.0,1.0,82,0.00,,,0.05,WeatherCatV1.15B25,2013-06-06 16:54:00,
2013-06-06 12:59:00,72.4,66.6,29.98,WNW,303,0.0,1.0,82,0.00,,,0.05,WeatherCatV1.15B25,2013-06-06 16:59:00,
2013-06-06 13:04:00,72.5,65.6,29.98,West,265,5.0,5.0,79,0.00,,,0.05,WeatherCatV1.15B25,2013-06-06 17:04:00,
2013-06-06 13:09:00,72.5,65.6,29.98,NE,50,0.0,2.0,79,0.00,,,0.05,WeatherCatV1.15B25,2013-06-06 17:09:00,
2013-06-06 13:14:00,72.9,66.4,29.98,NE,50,0.0,0.0,80,0.00,,,0.05,WeatherCatV1.15B25,2013-06-06 17:14:00,
2013-06-06 13:19:00,73.1,66.6,29.98,NE,50,0.0,0.0,80,0.00,,,0.05,WeatherCatV1.15B25,2013-06-06 17:19:00,
2013-06-06 13:24:00,73.3,67.5,29.97,WSW,249,1.0,2.0,82,0.00,,,0.05,WeatherCatV1.15B25,2013-06-06 17:24:00,
2013-06-06 13:29:00,73.4,66.1,29.98,West,259,0.0,3.0,78,0.00,,,0.05,WeatherCatV1.15B25,2013-06-06 17:29:00,
2013-06-06 13:34:00,73.8,66.1,29.97,SSW,210,4.0,6.0,77,0.00,,,0.05,WeatherCatV1.15B25,2013-06-06 17:34:00,
2013-06-06 13:39:00,74.2,65.8,29.97,NW,325,1.0,5.0,75,0.00,,,0.05,WeatherCatV1.15B25,2013-06-06 17:39:00,
2013-06-06 13:44:00,74.3,66.6,29.96,SSW,209,2.0,5.0,77,0.00,,,0.05,WeatherCatV1.15B25,2013-06-06 17:44:00,
2013-06-06 13:49:00,74.1,65.7,29.96,West,276,2.0,5.0,75,0.00,,,0.05,WeatherCatV1.15B25,2013-06-06 17:49:00,
2013-06-06 13:54:00,74.2,66.5,29.96,WSW,246,0.0,1.0,77,0.00,,,0.05,WeatherCatV1.15B25,2013-06-06 17:54:00,
2013-06-06 13:59:00,74.2,66.9,29.96,SW,236,0.0,1.0,78,0.00,,,0.05,WeatherCatV1.15B25,2013-06-06 17:59:00,
2013-06-06 14:04:00,74.2,66.1,29.96,SW,236,0.0,4.0,76,0.00,,,0.05,WeatherCatV1.15B25,2013-06-06 18:04:00,
2013-06-06 14:09:00,74.2,65.8,29.96,WSW,242,3.0,5.0,75,0.00,,,0.05,WeatherCatV1.15B25,2013-06-06 18:09:00,
2013-06-06 14:14:00,74.1,66.4,29.96,WSW,251,3.0,4.0,77,0.00,,,0.05,WeatherCatV1.15B25,2013-06-06 18:14:00,
2013-06-06 14:19:00,74.2,66.1,29.95,West,275,0.0,8.0,76,0.00,,,0.05,WeatherCatV1.15B25,2013-06-06 18:19:00,
2013-06-06 14:24:00,74.5,65.7,29.95,WSW,257,2.0,5.0,74,0.00,,,0.05,WeatherCatV1.15B25,2013-06-06 18:24:00,
2013-06-06 14:29:00,74.6,66.5,29.95,WSW,257,0.0,0.0,76,0.00,,,0.05,WeatherCatV1.15B25,2013-06-06 18:29:00,
2013-06-06 14:34:00,74.9,66.8,29.95,NE,53,1.0,2.0,76,0.00,,,0.05,WeatherCatV1.15B25,2013-06-06 18:34:00,
2013-06-06 14:39:00,75.3,66.0,29.94,WSW,243,3.0,4.0,73,0.00,,,0.05,WeatherCatV1.15B25,2013-06-06 18:39:00,
2013-06-06 14:44:00,75.4,66.5,29.94,WSW,244,3.0,3.0,74,0.00,,,0.05,WeatherCatV1.15B25,2013-06-06 18:44:00,
2013-06-06 14:49:00,75.6,67.1,29.94,NW,304,0.0,1.0,75,0.00,,,0.05,WeatherCatV1.15B25,2013-06-06 18:49:00,
2013-06-06 14:54:00,76.0,67.1,29.94,WSW,252,3.0,3.0,74,0.00,,,0.05,WeatherCatV1.15B25,2013-06-06 18:54:00,
2013-06-06 14:59:00,75.9,66.2,29.94,WSW,254,1.0,4.0,72,0.00,,,0.05,WeatherCatV1.15B25,2013-06-06 18:59:00,
2013-06-06 15:04:00,75.8,65.7,29.94,WSW,238,2.0,3.0,71,0.00,,,0.05,WeatherCatV1.15B25,2013-06-06 19:04:00,
2013-06-06 15:09:00,75.6,66.3,29.95,West,273,0.0,3.0,73,0.00,,,0.05,WeatherCatV1.15B25,2013-06-06 19:09:00,
2013-06-06 15:14:00,75.6,66.3,29.94,West,279,1.0,4.0,73,0.00,,,0.05,WeatherCatV1.15B25,2013-06-06 19:14:00,
2013-06-06 15:19:00,75.5,66.6,29.94,SSW,211,0.0,3.0,74,0.00,,,0.05,WeatherCatV1.15B25,2013-06-06 19:19:00,
2013-06-06 15:24:00,75.6,66.7,29.94,North,350,1.0,3.0,74,0.00,,,0.05,WeatherCatV1.15B25,2013-06-06 19:24:00,
2013-06-06 15:29:00,75.4,66.5,29.94,WSW,258,0.0,1.0,74,0.00,,,0.05,WeatherCatV1.15B25,2013-06-06 19:29:00,
2013-06-06 15:34:00,75.1,66.6,29.94,WNW,291,1.0,1.0,75,0.00,,,0.05,WeatherCatV1.15B25,2013-06-06 19:34:00,
2013-06-06 15:39:00,74.8,65.5,29.94,WSW,246,3.0,4.0,73,0.00,,,0.05,WeatherCatV1.15B25,2013-06-06 19:39:00,
2013-06-06 15:44:00,74.5,66.0,29.94,WSW,238,3.0,5.0,75,0.00,,,0.05,WeatherCatV1.15B25,2013-06-06 19:44:00,
2013-06-06 15:49:00,74.2,65.4,29.94,WSW,242,0.0,3.0,74,0.00,,,0.05,WeatherCatV1.15B25,2013-06-06 19:49:00,
2013-06-06 15:54:00,74.1,66.4,29.94,NNW,344,4.0,4.0,77,0.00,,,0.05,WeatherCatV1.15B25,2013-06-06 19:54:00,
2013-06-06 15:59:00,74.1,65.7,29.94,WSW,252,0.0,2.0,75,0.00,,,0.05,WeatherCatV1.15B25,2013-06-06 19:59:00,
2013-06-06 16:04:00,74.0,65.9,29.94,WSW,248,4.0,4.0,76,0.00,,,0.05,WeatherCatV1.15B25,2013-06-06 20:04:00,
2013-06-06 16:09:00,73.9,66.6,29.93,WSW,246,0.0,2.0,78,0.00,,,0.05,WeatherCatV1.15B25,2013-06-06 20:09:00,
2013-06-06 16:14:00,74.0,65.9,29.93,West,276,1.0,3.0,76,0.00,,,0.05,WeatherCatV1.15B25,2013-06-06 20:14:00,
2013-06-06 16:19:00,74.1,66.4,29.93,WSW,250,3.0,3.0,77,0.00,,,0.05,WeatherCatV1.15B25,2013-06-06 20:19:00,
2013-06-06 16:24:00,74.2,66.9,29.93,NNW,346,2.0,2.0,78,0.00,,,0.05,WeatherCatV1.15B25,2013-06-06 20:24:00,
2013-06-06 16:29:00,74.2,66.1,29.93,NNE,32,0.0,3.0,76,0.00,,,0.05,WeatherCatV1.15B25,2013-06-06 20:29:00,
2013-06-06 16:34:00,74.4,66.7,29.93,NW,321,0.0,0.0,77,0.00,,,0.05,WeatherCatV1.15B25,2013-06-06 20:34:00,
2013-06-06 16:39:00,74.3,66.2,29.93,WSW,242,0.0,2.0,76,0.00,,,0.05,WeatherCatV1.15B25,2013-06-06 20:39:00,
2013-06-06 16:44:00,74.1,66.8,29.93,West,259,1.0,2.0,78,0.00,,,0.05,WeatherCatV1.15B25,2013-06-06 20:44:00,
2013-06-06 16:49:00,73.8,66.1,29.93,West,276,1.0,2.0,77,0.00,,,0.05,WeatherCatV1.15B25,2013-06-06 20:49:00,
2013-06-06 16:54:00,73.7,66.8,29.92,SSW,200,1.0,4.0,79,0.00,,,0.05,WeatherCatV1.15B25,2013-06-06 20:54:00,
2013-06-06 16:59:00,73.7,66.0,29.92,West,267,4.0,5.0,77,0.00,,,0.05,WeatherCatV1.15B25,2013-06-06 20:59:00,
2013-06-06 17:04:00,73.5,65.5,29.92,NNW,344,0.0,7.0,76,0.00,,,0.05,WeatherCatV1.15B25,2013-06-06 21:04:00,
2013-06-06 17:09:00,73.4,65.7,29.92,West,263,1.0,3.0,77,0.00,,,0.05,WeatherCatV1.15B25,2013-06-06 21:09:00,
2013-06-06 17:14:00,73.3,66.0,29.92,NNE,31,1.0,4.0,78,0.00,,,0.05,WeatherCatV1.15B25,2013-06-06 21:14:00,
2013-06-06 17:19:00,73.1,65.8,29.92,WSW,241,1.0,2.0,78,0.00,,,0.05,WeatherCatV1.15B25,2013-06-06 21:19:00,
2013-06-06 17:24:00,73.0,66.1,29.92,SW,230,1.0,4.0,79,0.00,,,0.05,WeatherCatV1.15B25,2013-06-06 21:24:00,
2013-06-06 17:29:00,73.0,66.1,29.92,WNW,287,0.0,3.0,79,0.00,,,0.05,WeatherCatV1.15B25,2013-06-06 21:29:00,
2013-06-06 17:34:00,73.0,66.5,29.92,South,169,2.0,3.0,80,0.00,,,0.05,WeatherCatV1.15B25,2013-06-06 21:34:00,
2013-06-06 17:39:00,73.0,66.1,29.92,WNW,287,0.0,2.0,79,0.00,,,0.05,WeatherCatV1.15B25,2013-06-06 21:39:00,
2013-06-06 17:44:00,73.1,66.2,29.92,West,268,0.0,3.0,79,0.00,,,0.05,WeatherCatV1.15B25,2013-06-06 21:44:00,
2013-06-06 17:49:00,73.1,66.2,29.91,West,265,1.0,6.0,79,0.00,,,0.05,WeatherCatV1.15B25,2013-06-06 21:49:00,
2013-06-06 17:54:00,73.0,66.1,29.91,NW,311,3.0,5.0,79,0.00,,,0.05,WeatherCatV1.15B25,2013-06-06 21:54:00,
2013-06-06 17:59:00,73.0,66.1,29.91,WNW,291,3.0,7.0,79,0.00,,,0.05,WeatherCatV1.15B25,2013-06-06 21:59:00,
2013-06-06 18:04:00,72.8,66.3,29.92,NW,305,0.0,5.0,80,0.00,,,0.05,WeatherCatV1.15B25,2013-06-06 22:04:00,
2013-06-06 18:09:00,72.9,66.7,29.91,WNW,285,1.0,1.0,81,0.00,,,0.05,WeatherCatV1.15B25,2013-06-06 22:09:00,
2013-06-06 18:14:00,72.9,66.0,29.91,NE,34,3.0,5.0,79,0.00,,,0.05,WeatherCatV1.15B25,2013-06-06 22:14:00,
2013-06-06 18:19:00,72.9,66.4,29.91,West,265,4.0,4.0,80,0.00,,,0.05,WeatherCatV1.15B25,2013-06-06 22:19:00,
2013-06-06 18:24:00,72.8,66.3,29.91,East,80,0.0,3.0,80,0.00,,,0.05,WeatherCatV1.15B25,2013-06-06 22:24:00,
2013-06-06 18:29:00,72.8,66.3,29.91,WNW,289,0.0,3.0,80,0.00,,,0.05,WeatherCatV1.15B25,2013-06-06 22:29:00,
2013-06-06 18:34:00,72.9,66.7,29.91,NE,40,0.0,2.0,81,0.00,,,0.05,WeatherCatV1.15B25,2013-06-06 22:34:00,
2013-06-06 18:39:00,72.8,66.3,29.91,WSW,244,3.0,5.0,80,0.00,,,0.05,WeatherCatV1.15B25,2013-06-06 22:39:00,
2013-06-06 18:44:00,72.7,66.2,29.90,NW,313,1.0,2.0,80,0.00,,,0.05,WeatherCatV1.15B25,2013-06-06 22:44:00,
2013-06-06 18:49:00,72.7,66.2,29.90,West,281,0.0,1.0,80,0.00,,,0.05,WeatherCatV1.15B25,2013-06-06 22:49:00,
2013-06-06 18:54:00,72.5,66.0,29.90,NW,306,3.0,4.0,80,0.00,,,0.05,WeatherCatV1.15B25,2013-06-06 22:54:00,
2013-06-06 18:59:00,72.4,65.9,29.91,North,9,0.0,3.0,80,0.00,,,0.05,WeatherCatV1.15B25,2013-06-06 22:59:00,
2013-06-06 19:04:00,72.4,65.9,29.91,ESE,105,1.0,1.0,80,0.00,,,0.05,WeatherCatV1.15B25,2013-06-06 23:04:00,
2013-06-06 19:09:00,72.4,66.2,29.91,West,271,1.0,3.0,81,0.00,,,0.05,WeatherCatV1.15B25,2013-06-06 23:09:00,
2013-06-06 19:14:00,72.3,66.1,29.91,West,279,0.0,3.0,81,0.00,,,0.05,WeatherCatV1.15B25,2013-06-06 23:14:00,
2013-06-06 19:19:00,72.2,66.4,29.91,West,263,4.0,4.0,82,0.00,,,0.05,WeatherCatV1.15B25,2013-06-06 23:19:00,
2013-06-06 19:24:00,72.1,65.9,29.91,West,271,0.0,0.0,81,0.00,,,0.05,WeatherCatV1.15B25,2013-06-06 23:24:00,
2013-06-06 19:29:00,72.0,65.8,29.91,West,268,0.0,0.0,81,0.00,,,0.05,WeatherCatV1.15B25,2013-06-06 23:29:00,
2013-06-06 19:34:00,72.0,66.2,29.91,WSW,244,3.0,4.0,82,0.00,,,0.05,WeatherCatV1.15B25,2013-06-06 23:34:00,
2013-06-06 19:39:00,71.9,66.1,29.91,SW,222,4.0,4.0,82,0.00,,,0.05,WeatherCatV1.15B25,2013-06-06 23:39:00,
2013-06-06 19:44:00,71.8,65.6,29.91,SW,236,0.0,3.0,81,0.00,,,0.05,WeatherCatV1.15B25,2013-06-06 23:44:00,
2013-06-06 19:49:00,71.7,65.9,29.91,WNW,293,0.0,1.0,82,0.00,,,0.05,WeatherCatV1.15B25,2013-06-06 23:49:00,
2013-06-06 19:54:00,71.6,65.8,29.91,WNW,294,0.0,3.0,82,0.00,,,0.05,WeatherCatV1.15B25,2013-06-06 23:54:00,
2013-06-06 19:59:00,71.5,66.1,29.92,SW,232,0.0,5.0,83,0.00,,,0.05,WeatherCatV1.15B25,2013-06-06 23:59:00,
2013-06-06 20:04:00,71.4,66.0,29.91,West,273,0.0,0.0,83,0.00,,,0.05,WeatherCatV1.15B25,2013-06-07 00:04:00,
2013-06-06 20:09:00,71.3,65.9,29.92,WSW,246,2.0,4.0,83,0.00,,,0.05,WeatherCatV1.15B25,2013-06-07 00:09:00,
2013-06-06 20:14:00,71.2,65.8,29.92,West,277,0.0,6.0,83,0.00,,,0.05,WeatherCatV1.15B25,2013-06-07 00:14:00,
2013-06-06 20:19:00,71.1,65.7,29.91,North,355,0.0,0.0,83,0.00,,,0.05,WeatherCatV1.15B25,2013-06-07 00:19:00,
2013-06-06 20:24:00,70.9,65.5,29.92,NW,314,1.0,1.0,83,0.00,,,0.05,WeatherCatV1.15B25,2013-06-07 00:24:00,
2013-06-06 20:29:00,70.8,65.4,29.92,NW,325,0.0,0.0,83,0.00,,,0.05,WeatherCatV1.15B25,2013-06-07 00:29:00,
2013-06-06 20:34:00,70.7,65.6,29.92,NNW,344,0.0,1.0,84,0.00,,,0.05,WeatherCatV1.15B25,2013-06-07 00:34:00,
2013-06-06 20:39:00,70.6,65.5,29.92,NNE,30,0.0,0.0,84,0.00,,,0.05,WeatherCatV1.15B25,2013-06-07 00:39:00,
2013-06-06 20:44:00,70.5,65.4,29.92,NW,325,0.0,1.0,84,0.00,,,0.05,WeatherCatV1.15B25,2013-06-07 00:44:00,
2013-06-06 20:49:00,70.4,65.7,29.92,NW,325,0.0,0.0,85,0.00,,,0.05,WeatherCatV1.15B25,2013-06-07 00:49:00,
2013-06-06 20:54:00,70.3,65.6,29.92,NW,325,0.0,1.0,85,0.00,,,0.05,WeatherCatV1.15B25,2013-06-07 00:54:00,
2013-06-06 20:59:00,70.1,65.4,29.91,NW,325,0.0,0.0,85,0.00,,,0.05,WeatherCatV1.15B25,2013-06-07 00:59:00,
2013-06-06 21:04:00,70.0,65.3,29.91,NW,307,0.0,1.0,85,0.00,,,0.05,WeatherCatV1.15B25,2013-06-07 01:04:00,
2013-06-06 21:09:00,69.9,65.2,29.91,NNW,341,0.0,1.0,85,0.00,,,0.05,WeatherCatV1.15B25,2013-06-07 01:09:00,
2013-06-06 21:14:00,69.8,65.4,29.91,WNW,299,0.0,1.0,86,0.00,,,0.05,WeatherCatV1.15B25,2013-06-07 01:14:00,
2013-06-06 21:24:00,69.6,65.2,29.91,WNW,290,0.0,1.0,86,0.00,,,0.05,WeatherCatV1.15B25,2013-06-07 01:24:00,
2013-06-06 21:29:00,69.5,65.1,29.91,West,270,0.0,1.0,86,0.00,,,0.05,WeatherCatV1.15B25,2013-06-07 01:29:00,
2013-06-06 21:34:00,69.4,65.4,29.91,West,270,0.0,0.0,87,0.00,,,0.05,WeatherCatV1.15B25,2013-06-07 01:34:00,
2013-06-06 21:39:00,69.2,64.8,29.91,NE,51,2.0,5.0,86,0.00,,,0.05,WeatherCatV1.15B25,2013-06-07 01:39:00,
2013-06-06 21:44:00,69.2,65.2,29.91,NNE,19,0.0,1.0,87,0.00,,,0.05,WeatherCatV1.15B25,2013-06-07 01:44:00,
2013-06-06 21:49:00,69.0,65.0,29.92,NNE,17,1.0,2.0,87,0.00,,,0.05,WeatherCatV1.15B25,2013-06-07 01:49:00,
2013-06-06 21:54:00,69.0,65.0,29.92,NNE,17,0.0,1.0,87,0.00,,,0.05,WeatherCatV1.15B25,2013-06-07 01:54:00,
2013-06-06 21:59:00,68.9,65.2,29.92,NE,53,1.0,3.0,88,0.00,,,0.05,WeatherCatV1.15B25,2013-06-07 01:59:00,
2013-06-06 22:04:00,68.9,65.2,29.92,ESE,117,0.0,2.0,88,0.00,,,0.05,WeatherCatV1.15B25,2013-06-07 02:04:00,
2013-06-06 22:09:00,68.8,65.1,29.92,ESE,117,0.0,0.0,88,0.00,,,0.05,WeatherCatV1.15B25,2013-06-07 02:09:00,
2013-06-06 22:14:00,68.7,65.0,29.92,ENE,72,1.0,1.0,88,0.00,,,0.05,WeatherCatV1.15B25,2013-06-07 02:14:00,
2013-06-06 22:19:00,68.6,64.9,29.92,ENE,61,0.0,1.0,88,0.00,,,0.05,WeatherCatV1.15B25,2013-06-07 02:19:00,
2013-06-06 22:24:00,68.5,64.8,29.92,West,278,0.0,1.0,88,0.00,,,0.05,WeatherCatV1.15B25,2013-06-07 02:24:00,
2013-06-06 22:29:00,68.5,64.8,29.92,NNW,328,0.0,1.0,88,0.00,,,0.05,WeatherCatV1.15B25,2013-06-07 02:29:00,
2013-06-06 22:34:00,68.4,64.7,29.92,NNE,15,0.0,1.0,88,0.00,,,0.05,WeatherCatV1.15B25,2013-06-07 02:34:00,
2013-06-06 22:39:00,68.3,64.6,29.92,SE,138,0.0,1.0,88,0.00,,,0.05,WeatherCatV1.15B25,2013-06-07 02:39:00,
2013-06-06 22:44:00,68.3,64.6,29.92,West,264,1.0,3.0,88,0.00,,,0.05,WeatherCatV1.15B25,2013-06-07 02:44:00,
2013-06-06 22:49:00,68.2,64.5,29.92,West,264,0.0,0.0,88,0.00,,,0.05,WeatherCatV1.15B25,2013-06-07 02:49:00,
2013-06-06 22:54:00,68.1,64.7,29.93,WNW,295,0.0,1.0,89,0.00,,,0.05,WeatherCatV1.15B25,2013-06-07 02:54:00,
2013-06-06 22:59:00,68.1,64.7,29.92,WNW,295,0.0,0.0,89,0.00,,,0.05,WeatherCatV1.15B25,2013-06-07 02:59:00,
2013-06-06 23:04:00,68.1,64.4,29.93,WNW,295,1.0,1.0,88,0.00,,,0.05,WeatherCatV1.15B25,2013-06-07 03:04:00,
2013-06-06 23:09:00,68.0,64.3,29.92,NNW,330,0.0,0.0,88,0.00,,,0.05,WeatherCatV1.15B25,2013-06-07 03:09:00,
2013-06-06 23:14:00,67.9,64.2,29.92,NNW,330,0.0,1.0,88,0.00,,,0.05,WeatherCatV1.15B25,2013-06-07 03:14:00,
2013-06-06 23:19:00,67.9,64.2,29.92,NNE,23,0.0,0.0,88,0.00,,,0.05,WeatherCatV1.15B25,2013-06-07 03:19:00,
2013-06-06 23:24:00,67.8,64.1,29.92,SW,228,0.0,1.0,88,0.00,,,0.05,WeatherCatV1.15B25,2013-06-07 03:24:00,
2013-06-06 23:34:00,67.7,64.0,29.92,West,265,0.0,1.0,88,0.00,,,0.05,WeatherCatV1.15B25,2013-06-07 03:34:00,
2013-06-06 23:39:00,67.7,64.3,29.92,NE,45,0.0,1.0,89,0.00,,,0.05,WeatherCatV1.15B25,2013-06-07 03:39:00,
2013-06-06 23:44:00,67.6,63.9,29.92,WNW,288,1.0,1.0,88,0.00,,,0.05,WeatherCatV1.15B25,2013-06-07 03:44:00,
2013-06-06 23:49:00,67.6,63.9,29.92,NW,320,1.0,2.0,88,0.00,,,0.05,WeatherCatV1.15B25,2013-06-07 03:49:00,
2013-06-06 23:54:00,67.5,63.8,29.92,WSW,252,0.0,2.0,88,0.00,,,0.05,WeatherCatV1.15B25,2013-06-07 03:54:00,
2013-06-06 23:59:00,67.5,64.1,29.92,SW,233,0.0,3.0,89,0.00,,,0.05,WeatherCatV1.15B25,2013-06-07 03:59:00,